Total_Precipitation_Accumulation
0.03 0.03 0.03 0.02 0.02 0.02 0.03 0.04 0.05 0.03 0.03 0.03 0.04 0.06 0.10 0.11 0.09 0.07 0.06 0.02 0.01 0.00 0.01 0.04 0.08 0.11 0.15 0.17 0.17 0.17 0.14 0.11 0.08 0.06 0.05 0.04 0.04 0.04
0.03 0.03 0.03 0.04 0.04 0.06 0.07 0.07 0.08 0.08 0.06 0.03 0.03 0.06 0.10 0.12 0.12 0.08 0.06 0.05 0.02 0.01 0.03 0.16 0.26 0.27 0.28 0.25 0.22 0.22 0.22 0.19 0.13 0.09 0.07 0.05 0.03 0.02
0.03 0.03 0.03 0.04 0.05 0.06 0.08 0.10 0.12 0.12 0.10 0.04 0.04 0.09 0.13 0.14 0.15 0.13 0.09 0.05 0.03 0.03 0.04 0.17 0.44 0.65 0.57 0.45 0.35 0.29 0.26 0.23 0.17 0.11 0.08 0.05 0.02 0.02
0.03 0.03 0.02 0.03 0.03 0.04 0.06 0.08 0.09 0.10 0.10 0.08 0.07 0.12 0.15 0.19 0.22 0.17 0.09 0.04 0.04 0.06 0.11 0.17 0.36 0.77 0.87 0.65 0.54 0.42 0.31 0.24 0.16 0.11 0.07 0.04 0.03 0.02
0.03 0.03 0.03 0.04 0.05 0.05 0.07 0.07 0.08 0.09 0.13 0.17 0.16 0.15 0.18 0.25 0.29 0.20 0.09 0.05 0.05 0.07 0.14 0.22 0.34 0.82 1.12 0.90 0.68 0.59 0.40 0.27 0.16 0.11 0.07 0.04 0.02 0.01
0.02 0.03 0.04 0.06 0.07 0.07 0.08 0.08 0.10 0.10 0.10 0.13 0.16 0.19 0.22 0.26 0.28 0.24 0.11 0.07 0.05 0.06 0.11 0.22 0.33 0.65 1.00 1.01 0.79 0.70 0.55 0.38 0.25 0.14 0.07 0.04 0.02 0.01
0.02 0.03 0.04 0.05 0.07 0.08 0.10 0.11 0.13 0.12 0.09 0.09 0.12 0.17 0.22 0.23 0.20 0.17 0.10 0.07 0.05 0.06 0.10 0.16 0.28 0.55 0.73 0.79 0.68 0.55 0.47 0.37 0.27 0.17 0.09 0.04 0.02 0.01
0.04 0.03 0.02 0.03 0.05 0.08 0.11 0.11 0.09 0.08 0.08 0.10 0.12 0.10 0.12 0.13 0.10 0.08 0.05 0.07 0.05 0.05 0.07 0.13 0.22 0.41 0.53 0.51 0.39 0.23 0.16 0.14 0.11 0.07 0.04 0.02 0.01 0.00
0.04 0.03 0.02 0.02 0.03 0.04 0.06 0.06 0.05 0.06 0.09 0.12 0.11 0.07 0.09 0.11 0.08 0.06 0.03 0.06 0.08 0.05 0.05 0.12 0.22 0.30 0.33 0.27 0.16 0.06 0.03 0.02 0.02 0.01 0.01 0.00 0.00 0.00
0.03 0.02 0.01 0.03 0.03 0.04 0.04 0.06 0.10 0.10 0.09 0.11 0.11 0.11 0.15 0.13 0.06 0.05 0.04 0.10 0.13 0.06 0.03 0.11 0.19 0.19 0.16 0.11 0.05 0.01 0.01 0.01 0.00 0.00 0.00 0.00 0.00 0.00
0.02 0.02 0.03 0.06 0.06 0.09 0.11 0.13 0.19 0.22 0.19 0.17 0.18 0.23 0.25 0.16 0.07 0.06 0.08 0.12 0.09 0.04 0.04 0.08 0.12 0.10 0.07 0.05 0.03 0.01 0.01 0.00 0.00 0.00 0.00 0.00 0.00 0.00
0.01 0.03 0.06 0.09 0.09 0.15 0.14 0.13 0.16 0.19 0.17 0.17 0.20 0.25 0.24 0.20 0.14 0.12 0.10 0.06 0.03 0.03 0.05 0.06 0.06 0.04 0.04 0.03 0.02 0.02 0.02 0.01 0.00 0.00 0.00 0.00 0.00 0.00
0.02 0.06 0.08 0.10 0.10 0.13 0.14 0.12 0.16 0.18 0.15 0.13 0.15 0.16 0.18 0.18 0.16 0.17 0.12 0.05 0.03 0.02 0.03 0.03 0.03 0.02 0.02 0.02 0.01 0.01 0.01 0.01 0.00 0.00 0.00 0.00 0.00 0.00
0.02 0.08 0.09 0.08 0.09 0.12 0.11 0.14 0.22 0.24 0.17 0.12 0.10 0.10 0.11 0.14 0.13 0.10 0.07 0.05 0.03 0.02 0.01 0.01 0.01 0.01 0.01 0.01 0.00 0.00 0.00 0.00 0.00 0.00 0.00 0.00 0.00 0.00
0.02 0.09 0.09 0.05 0.08 0.14 0.18 0.21 0.28 0.25 0.18 0.11 0.09 0.08 0.07 0.08 0.09 0.09 0.07 0.05 0.03 0.02 0.01 0.00 0.00 0.00 0.00 0.00 0.00 0.00 0.00 0.00 0.00 0.00 0.00 0.00 0.00 0.00
0.01 0.06 0.07 0.05 0.06 0.13 0.20 0.25 0.25 0.24 0.19 0.13 0.10 0.09 0.08 0.07 0.07 0.07 0.06 0.03 0.02 0.02 0.02 0.01 0.00 0.00 0.00 0.00 0.00 0.00 0.00 0.00 0.00 0.00 0.00 0.00 0.00 0.00
0.00 0.02 0.02 0.03 0.04 0.07 0.12 0.16 0.15 0.15 0.16 0.13 0.11 0.10 0.09 0.08 0.08 0.07 0.05 0.02 0.02 0.02 0.02 0.01 0.00 0.00 0.00 0.00 0.00 0.00 0.00 0.00 0.00 0.00 0.00 0.00 0.00 0.00
0.00 0.01 0.03 0.05 0.06 0.07 0.08 0.09 0.08 0.08 0.09 0.09 0.10 0.09 0.09 0.08 0.08 0.05 0.03 0.02 0.01 0.01 0.01 0.00 0.00 0.00 0.00 0.00 0.00 0.00 0.00 0.00 0.00 0.00 0.00 0.00 0.00 0.00
0.00 0.01 0.03 0.06 0.09 0.09 0.10 0.09 0.08 0.07 0.06 0.06 0.07 0.08 0.07 0.07 0.05 0.03 0.01 0.01 0.01 0.00 0.00 0.00 0.00 0.00 0.00 0.00 0.00 0.00 0.00 0.00 0.00 0.00 0.00 0.00 0.00 0.00
0.01 0.01 0.01 0.03 0.07 0.11 0.11 0.10 0.09 0.08 0.05 0.04 0.06 0.07 0.07 0.05 0.03 0.01 0.01 0.00 0.00 0.00 0.00 0.00 0.00 0.00 0.00 0.00 0.00 0.00 0.00 0.00 0.00 0.00 0.00 0.00 0.00 0.00
0.01 0.01 0.01 0.02 0.04 0.08 0.09 0.09 0.08 0.06 0.05 0.03 0.04 0.05 0.06 0.05 0.02 0.01 0.00 0.00 0.00 0.00 0.00 0.00 0.00 0.00 0.00 0.00 0.00 0.00 0.00 0.00 0.00 0.00 0.00 0.00 0.00 0.00
0.02 0.01 0.01 0.01 0.02 0.05 0.05 0.05 0.05 0.05 0.04 0.04 0.04 0.04 0.05 0.04 0.02 0.01 0.00 0.00 0.00 0.00 0.00 0.00 0.00 0.00 0.00 0.00 0.00 0.00 0.00 0.00 0.00 0.00 0.00 0.00 0.00 0.00
0.03 0.02 0.01 0.02 0.02 0.03 0.04 0.04 0.05 0.05 0.04 0.03 0.03 0.03 0.03 0.03 0.02 0.01 0.01 0.00 0.00 0.00 0.00 0.00 0.00 0.00 0.00 0.00 0.00 0.00 0.00 0.00 0.00 0.00 0.00 0.00 0.00 0.00